Showing default

IRIDIUM 129, 42958

Orbit data source: Space-Track

IRIDIUM 129, 42958 is a payload satellite owned by Iridium (US) in LEO that was launched on Mon, 09 Oct 2017 UTC via an FALCON 9 launch vehicle from the Air Force Western Test Range (AFWTR). Payloads include a variety of satellites, spacecraft, and rockets equipped with specific instruments for various scientific and technological missions. These include communications satellites like Starlink; space stations such as the ISS; scientific satellites like the Hubble; Earth observation satellites from companies like Planet Labs, Umbra, and HawkEye 360; GPS; miniature CubeSats for education and research; and military/defense satellites.

Loading next visibility...
IRIDIUM 129 details
Identifier
42958, 2017-061D
Orbit
LEO
Last TLE update11 hours ago
Origin
Flag of USIridium (US)
ManufacturerOATK SSG Gilbert
MissionOperational Commercial Communications
Bus & MotorELITEBUS, Unknown motor
Mass860 kg wet, 700 kg dry
Launch date (UTC)
2017-10-09 (7 years ago)
Launch vehicle
FALCON 9
Launch site
Air Force Western Test Range (AFWTR)
Object type
Payload
Rocket body
Debris
Shape & HBRTrap Box + 2 Pan, 9.4 m
Radar Cross Section14.423 m², Large (>1 m²)

Expand to show TLE details & history

TLE from 11 hours ago
0 IRIDIUM 129
1 42958U 17061D   24361.45243644  .00000029  00000-0  31196-5 0  9997
2 42958  86.3970 249.9237 0002401  77.8762 282.2703 14.34213770377725
Epoch: 2024-12-26T10:51Z
Definitive object data (Epoch: 2024-12-26T10:51:30.508Z)
Latitude0.00001°
Longitude-8.38504°
Altitude780.367 km
Speed7.464 km/s
True Right ascension16h 39m 41s
True Declination0° 00' 00"
Sunlit
Object was in daylight at TLE epoch
Visualization TLE readout
Latitude60.57854°
Longitude165.0541°
Altitude786.835 km
Speed7.467 km/s
Apparent Right ascension06h 57m 39s
Apparent Declination17° 06' 19"
Sunlit
Object is in full shadow
Visualization observer readout
Local Sidereal Time20:50:33
Azimuth30.546° NE
Elevation-27.204°
Doppler factor1
Orbital elements
Apogee altitude776.362 km
Perigee altitude772.928 km
Semi-major axis7,152.782 km
Eccentricity0.0002401
Inclination86.397°
RAAN249.9237°
Arg. of periapsis77.8762°
True anomaly282.24341°
Mean anomaly282.2703°
Eccentric anomaly282.25686°
Mean motion3.58782 °/min
BSTAR0.0000031196
Orbital period100.34 mins
Loading maneuver chart data...
Loading historical data...
Loading historical data...
Loading historical data...
Loading historical data...
Loading historical data...
Loading historical data...
Loading historical data...

IRIDIUM 129 Visibility forecast

Observer location: undefined°, undefined

Span
Click to sort rows by Start time (UTC) header in descending order
Start Az.
Max El. time (UTC)
Max El. Az.
Max El.
End time (UTC)
End Az.
8 mins2024-12-27 04:10:33.692Z19.136° NNE2024-12-27 04:14:33.692Z71.759° E27.456°2024-12-27 04:18:33.692Z136.716° SSE
7 mins2024-12-27 05:52:33.692Z323.119° NNW2024-12-27 05:55:33.692Z276.372° WNW24.731°2024-12-27 05:59:33.692Z222.192° SW
8 mins2024-12-27 17:07:33.692Z168.518° S2024-12-27 17:10:33.692Z125.225° SE42.104°2024-12-27 17:15:33.692Z8.541° NNE
|